{"data":{"norad_id":45696,"epoch":"2026-05-25T01:41:43.888704Z","epoch_age_seconds":68643,"freshness":"FRESH","line1":"1 45696U 20035AR  26145.07064686  .00039807  00000+0  12106-2 0  9993","line2":"2 45696  53.1581  54.1690 0003684 104.5109 255.6302 15.33666031330677","mean_motion":15.33666031,"eccentricity":0.0003684,"inclination_deg":53.1581,"raan_deg":54.169,"arg_perigee_deg":104.5109,"mean_anomaly_deg":255.6302,"bstar":0.0012106,"rev_number":33067,"period_min":93.892670952689,"perigee_km":462.36465117982,"apogee_km":467.40659024676,"semimajor_km":6843.0226207133,"source":"CELESTRAK","updated_at":"2026-05-25T13:38:16.430127Z"}}